TimeEST,TemperatureF,Dew PointF,Humidity,Sea Level PressureIn,VisibilityMPH,Wind Direction,Wind SpeedMPH,Gust SpeedMPH,PrecipitationIn,Events,Conditions,WindDirDegrees,DateUTC
12:39 AM,35.6,35.6,100,29.81,1.5,SSE,8.1,-,N/A,,Overcast,160,2013-01-14 05:39:00
12:47 AM,35.6,35.6,100,29.80,0.8,SSE,8.1,-,N/A,,Mist,150,2013-01-14 05:47:00
12:53 AM,35.1,34.0,96,29.83,0.2,SSE,6.9,-,N/A,Fog,Fog,150,2013-01-14 05:53:00
1:53 AM,35.1,34.0,96,29.82,0.2,SSE,8.1,-,N/A,Fog,Fog,150,2013-01-14 06:53:00
2:53 AM,35.1,34.0,96,29.79,0.2,SE,10.4,-,N/A,Fog,Fog,140,2013-01-14 07:53:00
3:19 AM,35.6,35.6,100,29.76,1.5,SSE,11.5,-,N/A,,Overcast,160,2013-01-14 08:19:00
3:21 AM,35.6,35.6,100,29.75,2.0,SSE,11.5,-,N/A,,Overcast,150,2013-01-14 08:21:00
3:25 AM,35.6,35.6,100,29.74,1.5,SSE,11.5,-,N/A,,Overcast,150,2013-01-14 08:25:00
3:30 AM,35.6,35.6,100,29.74,0.8,SE,10.4,-,N/A,,Mist,140,2013-01-14 08:30:00
3:48 AM,35.6,35.6,100,29.74,1.5,SSE,9.2,-,N/A,,Overcast,160,2013-01-14 08:48:00
3:50 AM,35.6,35.6,100,29.73,2.5,South,8.1,-,N/A,,Overcast,170,2013-01-14 08:50:00
3:53 AM,36.0,35.1,97,29.76,4.0,South,9.2,-,N/A,,Overcast,170,2013-01-14 08:53:00
4:10 AM,35.6,35.6,100,29.70,10.0,SSE,10.4,-,N/A,,Overcast,150,2013-01-14 09:10:00
4:25 AM,35.6,35.6,100,29.70,1.5,SSE,9.2,-,N/A,,Overcast,150,2013-01-14 09:25:00
4:30 AM,35.6,35.6,100,29.70,0.8,SSE,10.4,-,N/A,,Overcast,150,2013-01-14 09:30:00
4:41 AM,35.6,35.6,100,29.70,1.5,SSE,11.5,-,N/A,,Overcast,150,2013-01-14 09:41:00
4:53 AM,37.0,36.0,96,29.72,9.0,SSE,10.4,-,N/A,,Overcast,160,2013-01-14 09:53:00
5:44 AM,35.6,35.6,100,29.68,10.0,SE,9.2,-,N/A,,Overcast,140,2013-01-14 10:44:00
5:53 AM,36.0,36.0,100,29.71,10.0,SSE,10.4,-,N/A,,Overcast,160,2013-01-14 10:53:00
6:36 AM,35.6,35.6,100,29.68,2.5,SSE,10.4,-,N/A,,Overcast,150,2013-01-14 11:36:00
6:43 AM,35.6,35.6,100,29.68,1.5,SE,8.1,-,N/A,,Overcast,140,2013-01-14 11:43:00
6:53 AM,36.0,36.0,100,29.70,1.8,SE,9.2,-,N/A,,Overcast,140,2013-01-14 11:53:00
7:01 AM,35.6,35.6,100,29.67,1.2,SE,8.1,-,N/A,,Overcast,140,2013-01-14 12:01:00
7:08 AM,37.4,35.6,93,29.67,1.8,SE,9.2,-,N/A,,Overcast,140,2013-01-14 12:08:00
7:15 AM,35.6,35.6,100,29.66,1.2,SE,8.1,-,N/A,,Overcast,140,2013-01-14 12:15:00
7:25 AM,35.6,35.6,100,29.66,0.8,SE,8.1,-,N/A,,Mist,140,2013-01-14 12:25:00
7:53 AM,36.0,36.0,100,29.68,0.2,SSE,11.5,-,N/A,Fog,Fog,150,2013-01-14 12:53:00
8:53 AM,37.0,37.0,100,29.69,2.0,South,8.1,-,N/A,,Overcast,180,2013-01-14 13:53:00
9:00 AM,37.4,37.4,100,29.67,5.0,Variable,5.8,-,N/A,,Overcast,0,2013-01-14 14:00:00
9:21 AM,37.4,37.4,100,29.66,1.5,SE,4.6,-,N/A,,Overcast,140,2013-01-14 14:21:00
9:29 AM,37.4,37.4,100,29.66,1.0,SSE,6.9,-,N/A,,Overcast,150,2013-01-14 14:29:00
9:44 AM,37.4,37.4,100,29.66,1.8,SE,6.9,-,N/A,,Overcast,130,2013-01-14 14:44:00
9:47 AM,37.4,37.4,100,29.66,3.0,SE,6.9,-,N/A,,Overcast,140,2013-01-14 14:47:00
9:53 AM,37.9,37.0,97,29.68,2.5,SE,5.8,-,N/A,,Overcast,140,2013-01-14 14:53:00
10:06 AM,39.2,37.4,93,29.65,9.0,SSE,8.1,-,N/A,,Overcast,150,2013-01-14 15:06:00
10:53 AM,39.9,37.9,93,29.69,10.0,Variable,4.6,-,N/A,,Overcast,0,2013-01-14 15:53:00
11:10 AM,39.2,39.2,100,29.67,10.0,Calm,Calm,-,N/A,,Overcast,0,2013-01-14 16:10:00
11:17 AM,42.8,39.2,87,29.67,10.0,West,24.2,33.4,N/A,,Overcast,260,2013-01-14 16:17:00
11:33 AM,48.2,37.4,66,29.68,10.0,West,27.6,46.0,N/A,,Mostly Cloudy,260,2013-01-14 16:33:00
11:53 AM,46.9,37.0,68,29.70,10.0,West,27.6,41.4,N/A,,Mostly Cloudy,260,2013-01-14 16:53:00
12:53 PM,45.0,30.9,58,29.73,10.0,WSW,29.9,41.4,N/A,,Clear,250,2013-01-14 17:53:00
1:53 PM,44.1,28.9,55,29.78,10.0,West,18.4,32.2,N/A,,Scattered Clouds,260,2013-01-14 18:53:00
2:53 PM,42.1,28.0,58,29.83,10.0,West,24.2,34.5,N/A,,Mostly Cloudy,260,2013-01-14 19:53:00
3:53 PM,39.9,26.1,58,29.89,10.0,WNW,27.6,36.8,N/A,,Overcast,290,2013-01-14 20:53:00
4:53 PM,33.8,24.8,70,29.92,10.0,NNW,12.7,23.0,N/A,,Scattered Clouds,330,2013-01-14 21:53:00
5:53 PM,30.9,21.9,69,29.99,10.0,NNW,8.1,-,N/A,,Clear,330,2013-01-14 22:53:00
6:53 PM,28.9,18.0,64,30.04,10.0,NW,15.0,23.0,N/A,,Clear,320,2013-01-14 23:53:00
7:53 PM,27.0,17.1,66,30.06,10.0,NW,15.0,21.9,N/A,,Clear,320,2013-01-15 00:53:00
8:53 PM,25.0,14.0,63,30.08,10.0,NNW,16.1,25.3,N/A,,Clear,330,2013-01-15 01:53:00
9:53 PM,23.0,12.0,63,30.13,10.0,NNW,15.0,-,N/A,,Clear,330,2013-01-15 02:53:00
10:53 PM,21.0,9.0,60,30.13,10.0,NW,16.1,-,N/A,,Clear,320,2013-01-15 03:53:00
11:53 PM,19.9,5.0,52,30.15,10.0,NNW,10.4,23.0,N/A,,Clear,340,2013-01-15 04:53:00